Time[GMT],air_temperature[C](-3m),wind_speed[m/s](-4m),wind_gust[m/s](-4m),visibility[m](-3m),barometric_pressure[millibars](-3m),wind_2_direction[degrees_true](-4m),wind_2_gust[m/s](-4m),wind_2_gust_1s[m/s](-4m),wind_2_min[m/s](-4m),wind_2_percent_good[1](-4m),wind_2_speed[m/s](-4m),wind_direction[degrees_true](-4m),wind_gust_1s[m/s](-4m),wind_min[m/s](-4m)
2009-03-26 04:00,2.6,,,2957,1022.29,355.10,1.60,1.83,0.40,1.00,1.14,,,
2009-03-26 04:10,2.4,,,2957,1022.35,3.34,2.86,3.05,0.86,1.00,1.82,,,
2009-03-26 04:20,2.4,,,2957,1022.41,9.79,2.98,3.39,2.12,1.00,2.67,,,
2009-03-26 04:30,2.4,,,2957,1022.48,358.71,2.68,2.97,1.77,1.00,2.47,,,
2009-03-26 04:40,2.1,,,2957,1022.48,2.52,2.51,2.58,1.45,1.00,2.05,,,
2009-03-26 04:50,2.0,,,2957,1022.60,6.81,2.12,2.56,1.41,1.00,1.88,,,
2009-03-26 05:00,1.8,,,2957,1022.66,357.29,2.29,2.53,1.38,1.00,1.95,,,
2009-03-26 05:10,1.3,,,2957,1022.84,269.40,3.17,3.43,0.97,1.00,2.40,,,
2009-03-26 05:20,2.0,,,2957,1022.84,309.00,2.60,2.86,0.54,1.00,1.68,,,
2009-03-26 05:30,1.7,,,2957,1022.84,278.20,1.92,2.15,1.02,1.00,1.63,,,
2009-03-26 05:40,1.6,,,2957,1022.90,273.30,1.59,1.78,0.60,1.00,1.15,,,
2009-03-26 05:50,1.4,,,2957,1022.72,284.20,1.26,1.79,0.54,1.00,1.03,,,
2009-03-26 06:00,1.0,,,2957,1022.66,325.30,1.39,1.63,0.37,1.00,0.98,,,
2009-03-26 06:10,1.3,,,2957,1022.72,329.40,1.66,2.06,0.44,1.00,1.30,,,
2009-03-26 06:20,1.7,,,2957,1022.78,334.90,1.81,2.16,0.86,1.00,1.47,,,
2009-03-26 06:30,1.6,,,2957,1022.54,332.80,1.46,1.70,0.06,1.00,0.71,,,
2009-03-26 06:40,1.5,,,2957,1022.54,348.42,1.94,2.17,0.03,1.00,0.95,,,
2009-03-26 06:50,1.4,,,2957,1022.35,15.98,1.99,2.27,1.23,1.00,1.73,,,
2009-03-26 07:00,1.2,,,2957,1022.41,337.00,1.94,2.26,1.01,1.00,1.62,,,
2009-03-26 07:10,1.0,,,2957,1022.35,9.74,1.98,2.38,1.16,1.00,1.70,,,
2009-03-26 07:20,1.0,,,2957,1022.35,0.02,1.95,2.14,0.90,1.00,1.52,,,
2009-03-26 07:30,0.8,,,2957,1022.23,349.10,1.82,2.19,1.12,1.00,1.58,,,
2009-03-26 07:40,0.9,,,2957,1022.17,4.22,2.04,2.27,0.98,1.00,1.73,,,
2009-03-26 07:50,0.9,,,2957,1022.05,22.72,1.84,2.00,1.17,1.00,1.58,,,
2009-03-26 08:00,0.9,,,2957,1021.99,15.30,1.89,2.12,1.08,1.00,1.60,,,
2009-03-26 08:10,0.7,,,2957,1021.74,31.59,1.92,2.11,1.20,1.00,1.68,,,
2009-03-26 08:20,0.7,,,2957,1021.81,343.18,1.72,1.95,0.92,1.00,1.39,,,
2009-03-26 08:30,0.8,,,2957,1021.74,3.20,1.95,2.14,1.04,1.00,1.64,,,
2009-03-26 08:40,0.9,,,2957,1021.68,40.27,2.20,2.40,1.14,1.00,1.79,,,
2009-03-26 08:50,0.8,,,2957,1021.81,348.12,2.06,2.25,1.03,1.00,1.67,,,
2009-03-26 09:00,0.7,,,2957,1021.81,353.62,2.38,2.74,1.42,1.00,2.04,,,
2009-03-26 09:10,0.4,,,2957,1021.68,29.77,2.95,3.11,2.03,1.00,2.59,,,
2009-03-26 09:20,0.7,,,2957,1021.74,5.96,2.41,2.59,1.28,1.00,1.93,,,
2009-03-26 09:30,0.8,,,2957,1021.81,350.25,2.43,2.71,1.41,1.00,2.14,,,
2009-03-26 09:40,0.9,,,2957,1021.62,17.27,2.64,2.88,1.79,1.00,2.36,,,
2009-03-26 09:50,0.7,,,2957,1021.62,12.57,2.15,2.26,1.05,1.00,1.63,,,
2009-03-26 10:00,0.7,,,2957,1021.56,358.98,2.60,3.05,1.28,1.00,2.15,,,
2009-03-26 10:10,0.8,,,2957,1021.38,8.53,3.05,3.34,2.24,1.00,2.77,,,
2009-03-26 10:20,0.7,,,2957,1021.32,6.88,3.33,3.55,2.15,1.00,2.81,,,
2009-03-26 10:30,0.7,,,2957,1021.20,13.76,3.36,3.74,2.32,1.00,2.90,,,
2009-03-26 10:40,0.8,,,2957,1021.13,14.01,3.36,3.55,2.09,1.00,2.99,,,
2009-03-26 10:50,1.0,,,2958,1021.20,14.70,3.25,3.57,2.11,1.00,2.88,,,
2009-03-26 11:00,1.2,,,2958,1021.20,5.81,3.26,3.64,2.05,1.00,2.87,,,
2009-03-26 11:10,1.3,,,2958,1021.44,348.83,3.67,4.07,2.25,1.00,3.15,,,
2009-03-26 11:20,1.3,,,2959,1021.44,352.20,3.63,3.94,2.30,1.00,3.21,,,
2009-03-26 11:30,1.2,,,2959,1021.44,345.37,4.07,4.59,2.08,1.00,3.30,,,
2009-03-26 11:40,1.1,,,2959,1021.44,343.59,3.94,4.19,2.35,1.00,3.29,,,
2009-03-26 11:50,1.0,,,2958,1021.44,0.10,3.46,3.77,2.26,1.00,3.07,,,
2009-03-26 12:00,0.9,,,2546,1021.38,8.22,3.28,3.57,2.04,1.00,2.87,,,
2009-03-26 12:10,0.8,,,2661,1021.32,11.79,3.34,4.00,1.79,1.00,2.77,,,
2009-03-26 12:20,0.9,,,2406,1021.32,21.44,3.30,3.68,2.07,1.00,2.84,,,
2009-03-26 12:30,0.9,,,2519,1021.44,11.58,3.71,4.08,2.13,1.00,3.07,,,
2009-03-26 12:40,0.9,,,2704,1021.38,16.41,3.52,4.03,2.14,1.00,3.05,,,
2009-03-26 12:50,0.9,,,2902,1021.20,8.16,3.58,4.22,2.22,1.00,3.03,,,
2009-03-26 13:00,1.0,,,2950,1020.83,25.59,3.34,3.84,2.26,1.00,2.98,,,
2009-03-26 13:10,1.1,,,2843,1020.71,29.27,3.81,4.02,2.16,1.00,2.95,,,
2009-03-26 13:20,1.2,,,2916,1020.59,20.26,3.63,4.10,2.43,1.00,3.24,,,
2009-03-26 13:30,1.4,,,2958,1020.46,14.77,3.89,4.26,2.72,1.00,3.49,,,
2009-03-26 13:40,1.6,,,2953,1020.46,24.71,3.84,4.19,1.95,1.00,2.95,,,
2009-03-26 13:50,2.0,,,2951,,31.01,2.88,3.13,1.48,1.00,2.28,,,
2009-03-26 14:00,2.4,,,2958,,68.20,2.38,2.80,1.37,1.00,2.01,,,
2009-03-26 14:10,2.5,,,2958,1020.16,80.90,3.96,4.31,2.38,1.00,3.44,,,
2009-03-26 14:20,2.4,,,2953,1020.04,83.00,4.00,4.38,2.28,1.00,3.22,,,
2009-03-26 14:30,2.5,,,2958,1019.85,86.20,3.60,3.85,2.45,1.00,3.16,,,
2009-03-26 14:40,2.6,,,2957,1019.73,87.70,3.39,3.75,2.08,1.00,2.96,,,
2009-03-26 14:50,2.7,,,2958,1019.67,83.80,3.52,3.98,2.34,1.00,3.05,,,
2009-03-26 15:00,2.8,,,2958,1019.85,94.10,3.11,3.44,1.10,1.00,2.25,,,
2009-03-26 15:10,2.9,,,2950,1020.04,127.60,2.47,2.92,0.69,1.00,1.78,,,
2009-03-26 15:20,3.1,,,2958,1020.40,147.80,2.36,2.87,0.29,1.00,1.39,,,
2009-03-26 15:30,3.6,,,2957,1020.53,142.50,1.78,2.45,0.04,1.00,0.96,,,
2009-03-26 15:40,2.8,,,2955,1020.83,194.90,2.50,2.91,1.15,1.00,2.07,,,
2009-03-26 15:50,2.4,,,2957,1020.95,192.10,2.87,3.23,1.84,1.00,2.51,,,
2009-03-26 16:00,2.2,,,2930,1021.13,204.60,3.36,3.73,2.00,1.00,2.89,,,
2009-03-26 16:10,2.2,,,2895,1021.26,192.20,3.86,4.21,1.88,1.00,3.20,,,
2009-03-26 16:20,2.3,,,2915,1021.38,184.80,3.63,4.05,2.16,1.00,3.03,,,
2009-03-26 16:30,2.5,,,2894,1021.13,176.70,3.39,3.78,2.13,1.00,2.97,,,
2009-03-26 16:40,2.5,,,2916,1020.95,176.00,3.63,4.10,2.33,1.00,3.19,,,
2009-03-26 16:50,2.5,,,2906,1020.89,178.80,4.02,4.40,2.61,1.00,3.59,,,
2009-03-26 17:00,2.6,,,2901,1020.71,177.30,4.37,4.64,2.48,1.00,3.57,,,
2009-03-26 17:10,2.6,,,2874,1020.77,182.10,3.96,4.24,2.52,1.00,3.52,,,
2009-03-26 17:20,2.6,,,2863,1020.59,174.40,4.03,4.47,2.41,1.00,3.53,,,
2009-03-26 17:30,2.6,,,2872,1020.10,160.50,3.99,4.38,2.16,1.00,3.48,,,
2009-03-26 17:40,2.5,,,2829,1019.73,153.60,4.21,4.55,2.01,1.00,3.55,,,
2009-03-26 17:50,2.4,,,2853,1019.25,138.40,4.81,5.09,2.38,1.00,3.95,,,
2009-03-26 18:00,2.4,,,2888,1018.88,127.30,5.28,5.75,2.37,1.00,3.73,,,
2009-03-26 18:10,2.4,,,2848,1018.64,145.70,4.11,4.63,2.06,1.00,3.36,,,
2009-03-26 18:20,2.5,,,2820,1018.33,141.70,4.27,4.73,2.24,1.00,3.33,,,
2009-03-26 18:30,2.6,,,2814,1018.21,152.50,3.99,4.35,2.15,1.00,3.40,,,
2009-03-26 18:40,2.6,,,2844,1018.09,152.60,4.31,4.53,2.19,1.00,3.35,,,
2009-03-26 18:50,2.6,,,2840,1017.91,152.10,4.17,4.67,2.06,1.00,3.41,,,
2009-03-26 19:00,2.8,,,2846,1017.97,162.80,4.35,4.65,1.99,1.00,3.48,,,
2009-03-26 19:10,3.0,,,2931,1017.91,176.90,4.48,4.85,2.09,1.00,3.53,,,
2009-03-26 19:20,3.3,,,2945,1017.78,187.70,3.99,4.42,2.24,1.00,3.21,,,
2009-03-26 19:30,3.2,,,2952,1017.48,177.80,3.60,4.00,2.19,1.00,3.14,,,
2009-03-26 19:40,3.2,,,2956,1017.36,175.80,4.14,4.48,2.38,1.00,3.44,,,
2009-03-26 19:50,3.0,,,2958,1017.24,182.80,4.70,5.06,2.61,1.00,3.84,,,
2009-03-26 20:00,2.8,,,2958,1017.30,186.00,4.74,5.33,2.99,1.00,4.10,,,
2009-03-26 20:10,3.0,,,2957,1017.17,178.20,4.40,5.05,2.27,1.00,3.77,,,
2009-03-26 20:20,2.9,,,2958,1017.11,191.40,4.31,4.72,2.19,1.00,3.48,,,
2009-03-26 20:30,2.8,,,2958,1017.24,195.60,4.68,5.00,2.78,1.00,3.92,,,
2009-03-26 20:40,2.8,,,2958,1017.24,192.50,4.25,4.53,2.74,1.00,3.57,,,
2009-03-26 20:50,2.9,,,1870,1017.30,199.50,4.10,4.52,2.43,1.00,3.54,,,
2009-03-26 21:00,2.8,,,1789,1017.36,204.00,4.29,4.76,2.69,1.00,3.62,,,
2009-03-26 21:10,2.7,,,2957,1017.48,204.40,4.79,5.02,3.10,1.00,4.03,,,
2009-03-26 21:20,2.7,,,2957,1017.11,189.10,4.32,4.38,2.16,1.00,3.43,,,
2009-03-26 21:30,2.6,,,2958,1016.75,180.30,3.60,4.00,2.38,1.00,3.12,,,
2009-03-26 21:40,2.5,,,2958,1016.75,186.90,4.08,4.67,2.49,1.00,3.63,,,
2009-03-26 21:50,2.5,,,2958,1016.69,194.70,3.49,4.15,2.03,1.00,3.06,,,
2009-03-26 22:00,2.5,,,2958,1016.69,190.30,3.44,3.90,1.58,1.00,2.68,,,
2009-03-26 22:10,2.6,,,2957,1016.51,168.80,3.11,3.35,1.39,1.00,2.45,,,
2009-03-26 22:20,2.5,,,2957,1016.44,169.50,2.88,3.29,1.32,1.00,2.34,,,
2009-03-26 22:30,2.4,,,2957,1016.38,179.50,2.85,3.40,1.54,1.00,2.45,,,
2009-03-26 22:40,2.4,,,2957,1016.44,190.60,2.66,3.02,1.09,1.00,2.04,,,
2009-03-26 22:50,2.3,,,2957,1016.69,215.00,3.81,4.23,1.62,1.00,3.04,,,
2009-03-26 23:00,2.3,,,2957,1016.87,229.70,4.30,4.59,2.41,1.00,3.61,,,
2009-03-26 23:10,2.4,,,2957,1016.69,219.20,4.01,4.16,2.08,1.00,3.12,,,
2009-03-26 23:20,2.4,,,2957,1016.69,223.40,3.65,4.03,2.03,1.00,3.01,,,
2009-03-26 23:30,2.3,,,2957,1016.69,222.00,3.55,4.00,2.12,1.00,3.09,,,
2009-03-26 23:40,2.3,,,2957,1016.63,221.20,3.42,3.86,1.86,1.00,2.90,,,
2009-03-26 23:50,2.3,,,2957,1016.51,221.70,3.12,3.67,2.04,1.00,2.83,,,
2009-03-27 00:00,2.3,,,2957,1016.26,208.70,2.89,3.26,1.44,1.00,2.29,,,
2009-03-27 00:10,2.3,,,2957,1016.38,210.60,3.14,3.43,1.51,1.00,2.42,,,
2009-03-27 00:20,2.3,,,2957,1016.44,210.10,3.14,3.33,1.31,1.00,2.42,,,
2009-03-27 00:30,2.3,,,2957,1016.26,203.80,2.65,2.96,1.32,1.00,2.34,,,
2009-03-27 00:40,2.3,,,2957,1016.20,210.30,2.86,3.21,1.62,1.00,2.35,,,
2009-03-27 00:50,2.2,,,2957,1016.02,195.60,2.59,3.06,1.47,1.00,2.22,,,
2009-03-27 01:00,2.2,,,2957,1015.90,179.50,2.39,2.79,1.48,1.00,2.10,,,
2009-03-27 01:10,2.3,,,2957,1015.96,186.80,2.39,2.62,1.52,1.00,2.08,,,
2009-03-27 01:20,2.3,,,2957,1015.84,172.40,2.21,2.51,1.00,1.00,1.82,,,
2009-03-27 01:30,2.3,,,2957,1015.84,194.80,2.04,2.52,1.25,1.00,1.83,,,
2009-03-27 01:40,2.4,,,2957,1015.71,199.10,1.98,2.25,1.26,1.00,1.73,,,
2009-03-27 01:50,2.4,,,2957,1015.71,211.70,2.11,2.46,1.49,1.00,1.92,,,
2009-03-27 02:00,2.3,,,2957,1015.53,207.70,2.03,2.29,0.94,1.00,1.61,,,
2009-03-27 02:10,2.3,,,2957,1015.41,196.00,1.90,2.22,1.04,1.00,1.64,,,
2009-03-27 02:20,2.3,,,2957,1015.29,170.10,1.83,2.17,0.97,1.00,1.54,,,
2009-03-27 02:30,2.3,,,2957,1015.17,151.80,1.57,1.98,0.81,1.00,1.33,,,
2009-03-27 02:40,2.3,,,2957,1014.98,147.30,1.33,1.69,0.56,1.00,1.11,,,
2009-03-27 02:50,2.3,,,2957,1014.92,130.00,1.23,1.55,0.31,1.00,0.99,,,
2009-03-27 03:00,2.3,,,2957,1014.80,128.50,1.08,1.36,0.30,1.00,0.85,,,
2009-03-27 03:10,2.3,,,2957,1014.80,138.70,1.53,1.79,0.52,1.00,1.16,,,
2009-03-27 03:20,2.3,,,2957,1014.68,121.90,1.71,2.12,0.82,1.00,1.41,,,
2009-03-27 03:30,2.3,,,2957,1014.62,137.10,1.71,1.62,0.62,1.00,1.21,,,
2009-03-27 03:40,2.3,,,2957,1014.38,122.50,1.55,2.02,0.75,1.00,1.31,,,
2009-03-27 03:50,2.3,,,2957,1014.50,124.70,1.43,1.69,0.54,1.00,1.08,,,
2009-03-27 04:00,2.3,,,2957,1014.50,104.40,1.24,1.64,0.51,1.00,1.05,,,
2009-03-27 04:10,2.3,,,2957,1014.38,99.30,1.52,1.74,0.70,1.00,1.20,,,
2009-03-27 04:20,2.4,,,2957,1014.31,110.70,1.31,1.65,0.53,1.00,1.06,,,
2009-03-27 04:30,2.4,,,2957,1014.31,135.80,1.33,1.72,0.60,1.00,1.11,,,
2009-03-27 04:40,2.4,,,2957,1014.19,130.40,1.20,1.59,0.54,1.00,1.00,,,
2009-03-27 04:50,2.4,,,2957,1014.25,146.00,1.23,1.59,0.50,1.00,1.00,,,
2009-03-27 05:00,2.3,,,2956,1014.19,140.40,1.24,1.61,0.43,1.00,0.99,,,
2009-03-27 05:10,2.3,,,2957,1014.13,111.90,1.60,2.02,0.47,1.00,1.20,,,
2009-03-27 05:20,2.3,,,2957,1013.83,102.10,2.31,2.63,1.11,1.00,1.84,,,
2009-03-27 05:30,2.4,,,2947,1013.65,124.40,2.73,3.02,1.54,1.00,2.26,,,
2009-03-27 05:40,2.4,,,2910,1013.34,113.00,3.53,3.89,1.87,1.00,2.81,,,
2009-03-27 05:50,2.5,,,2957,1013.28,131.10,3.53,4.05,1.92,1.00,2.71,,,
2009-03-27 06:00,2.6,,,2951,1013.16,141.00,3.83,4.53,2.21,1.00,3.12,,,
2009-03-27 06:10,2.6,,,2956,1013.10,143.80,4.18,4.57,2.26,1.00,3.25,,,
2009-03-27 06:20,2.6,,,2957,1013.04,149.40,4.14,4.55,2.31,1.00,3.34,,,
2009-03-27 06:30,2.6,,,2956,1012.98,148.30,3.91,4.14,2.19,1.00,3.11,,,
2009-03-27 06:40,2.6,,,2920,1012.85,142.10,4.29,4.70,2.33,1.00,3.23,,,
2009-03-27 06:50,2.6,,,2948,1012.79,146.60,3.78,4.14,2.02,1.00,3.10,,,
2009-03-27 07:00,2.6,,,2951,1012.79,142.80,3.92,4.21,2.04,1.00,3.05,,,
2009-03-27 07:10,2.5,,,2936,1012.67,145.30,3.68,4.62,2.27,1.00,3.15,,,
2009-03-27 07:20,2.5,,,2925,1012.43,146.30,3.77,4.26,1.93,1.00,2.97,,,
2009-03-27 07:30,2.5,,,2956,1012.37,150.50,3.95,4.70,2.18,1.00,3.09,,,
2009-03-27 07:40,2.5,,,2930,1012.31,147.80,3.72,4.55,1.94,1.00,3.13,,,
2009-03-27 07:50,2.5,,,2952,1012.49,152.70,3.60,4.29,1.88,1.00,2.98,,,
2009-03-27 08:00,2.5,,,2957,1012.37,147.10,3.57,4.03,2.14,1.00,3.02,,,
2009-03-27 08:10,2.4,,,2957,1012.06,135.50,4.44,5.12,2.29,1.00,3.70,,,
2009-03-27 08:20,2.4,,,2957,1012.13,141.10,4.38,4.90,2.67,1.00,3.72,,,
2009-03-27 08:30,2.4,,,2957,1012.13,142.40,3.97,4.41,2.36,1.00,3.45,,,
2009-03-27 08:40,2.4,,,2948,1012.13,146.00,3.56,3.93,2.04,1.00,3.05,,,
2009-03-27 08:50,2.4,,,2957,1012.19,143.90,3.77,4.31,2.15,1.00,3.10,,,
2009-03-27 09:00,2.4,,,2957,1012.37,150.80,3.22,3.74,1.96,1.00,2.70,,,
2009-03-27 09:10,2.4,,,2957,1012.37,147.50,2.99,3.49,1.64,1.00,2.64,,,
2009-03-27 09:20,2.3,,,2957,1012.25,142.10,3.36,3.77,1.90,1.00,2.82,,,
2009-03-27 09:30,2.3,,,2957,1012.43,152.40,3.36,3.55,1.59,1.00,2.51,,,
2009-03-27 09:40,2.3,,,2957,1012.49,153.50,2.87,3.37,1.25,1.00,2.46,,,
2009-03-27 09:50,2.3,,,2957,1012.43,152.30,2.99,3.34,1.62,1.00,2.51,,,
2009-03-27 10:00,2.2,,,2954,1012.37,151.40,2.89,3.36,1.20,1.00,2.32,,,
2009-03-27 10:10,2.2,,,2957,1012.37,144.80,2.80,3.39,1.62,1.00,2.45,,,
2009-03-27 10:20,2.2,,,2957,1012.37,139.60,3.03,3.54,1.18,1.00,2.50,,,
2009-03-27 10:30,2.2,,,2957,1012.25,138.10,3.13,3.74,1.55,1.00,2.62,,,
2009-03-27 10:40,2.3,,,2957,1012.37,138.30,2.62,3.37,0.95,1.00,2.05,,,
2009-03-27 10:50,2.3,,,2957,1012.61,147.20,2.08,2.89,0.82,1.00,1.79,,,
2009-03-27 11:00,2.2,,,2957,1012.79,158.50,2.06,2.59,0.50,1.00,1.59,,,
2009-03-27 11:10,2.3,,,2957,1012.98,178.00,1.62,2.54,0.42,1.00,1.37,,,
2009-03-27 11:20,2.3,,,2957,1013.10,192.60,1.51,2.12,0.45,1.00,1.34,,,
2009-03-27 11:30,2.3,,,2957,1013.16,207.60,1.41,2.00,0.51,1.00,1.24,,,
2009-03-27 11:40,2.3,,,2957,1013.10,184.00,1.23,2.10,0.08,1.00,0.89,,,
2009-03-27 11:50,2.2,,,2957,1013.28,186.90,1.98,2.56,0.21,1.00,1.12,,,
2009-03-27 12:00,2.2,,,2957,1013.40,177.50,3.08,3.70,0.83,1.00,2.05,,,
2009-03-27 12:10,2.2,,,2957,1013.34,165.70,3.72,4.29,1.45,1.00,2.87,,,
2009-03-27 12:20,2.2,,,2957,1013.46,179.30,3.64,4.03,1.41,1.00,2.80,,,
2009-03-27 12:30,2.3,,,2957,1013.46,186.00,3.11,3.46,1.36,1.00,2.52,,,
2009-03-27 12:40,2.2,,,2957,1013.46,192.50,3.01,3.70,0.75,1.00,2.23,,,
2009-03-27 12:50,2.2,,,2957,1013.16,173.90,2.71,3.19,0.90,1.00,2.10,,,
2009-03-27 13:00,2.2,,,2957,1012.98,160.20,3.51,4.36,1.50,1.00,2.74,,,
2009-03-27 13:10,2.2,,,2957,1012.92,156.90,3.77,4.59,1.91,1.00,3.33,,,
2009-03-27 13:20,2.2,,,2957,1013.10,165.10,3.39,4.16,1.53,1.00,2.87,,,
2009-03-27 13:30,2.1,,,2957,1013.16,154.20,4.02,4.55,2.09,1.00,3.25,,,
2009-03-27 13:40,2.2,,,2957,1013.40,170.50,3.62,4.23,1.73,1.00,3.05,,,
2009-03-27 13:50,2.2,,,2957,1013.58,177.30,3.23,3.57,1.42,1.00,2.62,,,
2009-03-27 14:00,2.3,,,2957,1013.46,169.40,2.40,3.03,1.08,1.00,2.08,,,
2009-03-27 14:10,2.3,,,2957,1013.65,163.90,2.97,3.47,1.54,1.00,2.57,,,
2009-03-27 14:20,2.3,,,2958,1013.89,171.00,2.64,2.99,1.34,1.00,2.22,,,
2009-03-27 14:30,2.3,,,2958,1013.77,168.60,2.97,3.32,1.35,1.00,2.30,,,
2009-03-27 14:40,2.3,,,2958,1013.77,173.40,2.38,3.03,1.00,1.00,2.07,,,
2009-03-27 14:50,2.4,,,2957,1013.77,169.70,4.37,4.67,1.89,1.00,3.21,,,
2009-03-27 15:00,2.3,,,2958,1013.89,171.50,4.04,4.43,2.26,1.00,3.35,,,
2009-03-27 15:10,2.2,,,2957,1013.83,171.10,3.70,4.05,1.68,1.00,2.80,,,
2009-03-27 15:20,2.3,,,2957,1013.65,171.80,3.13,3.73,1.45,1.00,2.49,,,
2009-03-27 15:30,2.3,,,2958,1013.95,192.20,3.46,3.85,1.96,1.00,2.88,,,
2009-03-27 15:40,2.3,,,2958,1013.83,192.70,3.16,3.58,1.68,1.00,2.62,,,
2009-03-27 15:50,2.3,,,2958,1014.01,204.80,2.91,3.27,1.61,1.00,2.46,,,
2009-03-27 16:00,2.3,,,2958,1013.89,212.60,2.58,2.78,1.32,1.00,2.07,,,
2009-03-27 16:10,2.3,,,2958,1013.83,217.20,2.29,2.57,1.33,1.00,1.90,,,
2009-03-27 16:20,2.3,,,2958,1013.65,192.10,2.69,3.01,1.69,1.00,2.29,,,
2009-03-27 16:30,2.5,,,2950,1013.52,184.40,2.84,3.15,1.66,1.00,2.42,,,
2009-03-27 16:40,2.6,,,2956,1013.40,183.90,2.81,3.02,1.58,1.00,2.35,,,
2009-03-27 16:50,2.6,,,2957,1013.58,195.10,3.19,3.39,1.90,1.00,2.68,,,
2009-03-27 17:00,2.6,,,2956,1013.46,195.90,3.26,3.64,1.74,1.00,2.66,,,
2009-03-27 17:10,2.5,,,2953,1013.58,194.10,3.44,3.83,1.98,1.00,2.91,,,
2009-03-27 17:20,2.5,,,2957,1013.71,190.60,3.71,4.16,2.35,1.00,3.24,,,
2009-03-27 17:30,2.5,,,2957,1013.65,184.40,3.39,3.79,1.84,1.00,2.82,,,
2009-03-27 17:40,2.6,,,2948,1013.46,178.00,3.34,3.58,1.79,1.00,2.71,,,
2009-03-27 17:50,2.6,,,2957,1013.58,182.80,3.16,3.44,1.92,1.00,2.70,,,
2009-03-27 18:00,2.6,,,2957,1013.58,188.20,3.03,3.32,1.34,1.00,2.47,,,
2009-03-27 18:10,2.6,,,2956,1013.46,183.30,3.11,3.54,1.63,1.00,2.61,,,
2009-03-27 18:20,2.6,,,2947,1013.52,175.80,3.26,3.66,1.66,1.00,2.61,,,
2009-03-27 18:30,2.6,,,2951,1013.52,162.40,3.37,3.74,1.59,1.00,2.79,,,
2009-03-27 18:40,2.5,,,2957,1013.52,161.60,3.58,3.95,1.84,1.00,3.05,,,
2009-03-27 18:50,2.6,,,2941,1013.65,171.80,3.70,4.01,2.03,1.00,2.99,,,
2009-03-27 19:00,2.6,,,2953,1013.58,176.30,3.64,4.09,2.00,1.00,3.00,,,
2009-03-27 19:10,2.6,,,2957,1013.83,185.10,4.00,4.40,2.33,1.00,3.27,,,
2009-03-27 19:20,2.6,,,2957,1014.13,195.50,4.38,4.53,2.68,1.00,3.68,,,
2009-03-27 19:30,2.6,,,2957,1014.25,192.80,4.38,4.72,2.56,1.00,3.82,,,
2009-03-27 19:40,2.6,,,2956,1014.25,194.30,4.59,4.96,2.46,1.00,3.78,,,
2009-03-27 19:50,2.6,,,2958,1014.13,190.10,4.91,5.33,2.99,1.00,4.02,,,
2009-03-27 20:00,2.7,,,2955,1014.19,192.30,4.74,5.29,2.84,1.00,3.89,,,
2009-03-27 20:10,2.7,,,2954,1014.38,202.40,5.07,5.40,2.78,1.00,4.03,,,
2009-03-27 20:20,2.7,,,2958,1014.44,198.00,4.53,4.86,2.69,1.00,3.82,,,
2009-03-27 20:30,2.7,,,2957,1014.68,198.50,3.90,4.34,2.49,1.00,3.35,,,
2009-03-27 20:40,2.7,,,2957,1014.74,206.80,4.20,4.63,2.78,1.00,3.69,,,
2009-03-27 20:50,2.8,,,2958,1014.80,201.50,4.36,4.74,2.55,1.00,3.66,,,
2009-03-27 21:00,2.8,,,2957,1014.86,199.70,3.91,4.46,2.09,1.00,3.43,,,
2009-03-27 21:10,2.8,,,2958,1014.92,203.90,3.53,3.91,2.10,1.00,3.00,,,
2009-03-27 21:20,2.9,,,2957,1014.98,190.00,3.77,4.34,2.34,1.00,3.26,,,
2009-03-27 21:30,2.8,,,2958,1015.11,194.20,3.96,4.16,2.35,1.00,3.31,,,
2009-03-27 21:40,2.8,,,2957,1015.35,191.00,3.62,4.07,2.30,1.00,3.06,,,
2009-03-27 21:50,2.8,,,2958,1015.47,191.50,3.76,4.22,2.14,1.00,3.20,,,
2009-03-27 22:00,3.0,,,2958,1015.29,189.90,3.41,3.93,1.59,1.00,2.75,,,
2009-03-27 22:10,2.9,,,2958,1015.29,188.00,3.04,3.32,1.41,1.00,2.42,,,
2009-03-27 22:20,2.8,,,2958,1015.29,190.00,3.63,4.15,1.76,1.00,3.06,,,
2009-03-27 22:30,2.9,,,2958,1015.29,188.10,3.44,3.85,2.08,1.00,2.98,,,
2009-03-27 22:40,2.8,,,2957,1015.47,195.10,2.70,2.89,1.22,1.00,2.04,,,
2009-03-27 22:50,2.7,,,2957,1015.53,191.90,2.58,3.30,1.42,1.00,2.17,,,
2009-03-27 23:00,2.6,,,2957,1015.53,209.40,2.48,2.98,0.41,1.00,1.65,,,
2009-03-27 23:10,2.4,,,2957,1015.53,216.20,1.17,0.92,0.00,1.00,0.32,,,
2009-03-27 23:20,2.3,,,2957,1015.47,240.60,0.87,1.18,0.01,1.00,0.49,,,
2009-03-27 23:30,2.6,,,2957,1015.41,254.50,1.39,1.80,0.62,1.00,1.17,,,
2009-03-27 23:40,2.5,,,2957,1015.53,269.60,1.54,1.88,0.37,1.00,1.16,,,
2009-03-27 23:50,2.5,,,2957,1015.59,264.00,1.49,1.67,0.48,1.00,1.14,,,
2009-03-28 00:00,2.3,,,2957,1015.71,337.40,1.06,1.15,0.02,1.00,0.47,,,
2009-03-28 00:10,2.3,,,2957,1015.71,282.50,0.89,1.26,0.04,1.00,0.57,,,
2009-03-28 00:20,2.3,,,2957,1015.96,118.70,1.05,1.35,0.00,1.00,0.65,,,
2009-03-28 00:30,2.2,,,2957,1016.14,227.20,1.05,1.38,0.03,1.00,0.55,,,
2009-03-28 00:40,2.1,,,2321,1016.26,274.50,1.66,1.99,0.21,1.00,1.09,,,
2009-03-28 00:50,1.6,,,1751,1016.38,239.70,1.79,2.31,1.11,1.00,1.67,,,
2009-03-28 01:00,1.3,,, 348,1016.51,232.40,1.90,2.23,0.34,1.00,1.15,,,
2009-03-28 01:10,1.3,,, 785,1016.57,226.90,1.85,2.25,0.08,1.00,1.19,,,
2009-03-28 01:20,1.7,,,2883,1016.57,236.60,3.57,3.83,1.22,1.00,2.31,,,
2009-03-28 01:30,1.9,,, 560,1016.63,234.50,5.21,5.63,3.20,1.00,4.61,,,
2009-03-28 01:40,1.7,,, 535,1016.87,241.90,4.48,4.75,2.46,1.00,3.46,,,
2009-03-28 01:50,1.6,,, 418,1016.87,256.60,4.19,4.39,2.52,1.00,3.54,,,
2009-03-28 02:00,1.5,,, 358,1016.87,256.40,3.74,4.02,1.91,1.00,2.93,,,
2009-03-28 02:10,1.5,,, 345,1016.69,253.90,4.93,5.41,2.54,1.00,3.95,,,
2009-03-28 02:20,1.6,,, 365,1016.81,255.10,5.45,5.61,2.84,1.00,4.30,,,
2009-03-28 02:30,1.6,,, 394,1016.81,257.00,5.19,5.44,3.21,1.00,4.33,,,
2009-03-28 02:40,1.6,,, 383,1016.75,262.10,5.20,5.80,2.73,1.00,4.26,,,
2009-03-28 02:50,1.7,,, 350,1016.93,271.70,4.64,5.11,2.10,1.00,3.56,,,
2009-03-28 03:00,1.7,,, 371,1016.99,279.60,5.15,5.66,2.22,1.00,3.91,,,
2009-03-28 03:10,1.7,,, 505,1017.11,289.90,5.02,5.51,2.41,1.00,3.82,,,
2009-03-28 03:20,1.7,,, 553,1017.11,295.80,4.26,5.01,2.21,1.00,3.43,,,
2009-03-28 03:30,1.6,,, 644,1017.17,285.30,4.59,4.87,2.17,1.00,3.35,,,
2009-03-28 03:40,1.6,,, 652,1017.24,284.60,3.99,4.63,1.50,1.00,2.74,,,
2009-03-28 03:50,1.6,,, 742,1017.24,269.80,3.60,4.01,1.78,1.00,2.94,,,
2009-03-28 04:00,1.5,,, 752,1017.30,269.80,3.16,3.36,1.73,1.00,2.59,,,
2009-03-28 04:10,1.6,,, 767,1017.24,281.20,3.17,3.36,1.62,1.00,2.44,,,
2009-03-28 04:20,1.6,,, 737,1017.30,287.30,3.21,3.63,1.67,1.00,2.52,,,
2009-03-28 04:30,1.5,,, 658,1017.36,269.80,2.99,3.19,1.28,1.00,2.02,,,
2009-03-28 04:40,1.5,,, 711,1017.30,247.60,3.32,3.56,1.42,1.00,2.19,,,
2009-03-28 04:50,1.5,,, 664,1017.24,266.40,2.61,3.02,0.70,1.00,1.80,,,
2009-03-28 05:00,1.4,,, 592,1017.17,291.40,2.64,2.85,1.06,1.00,1.77,,,
2009-03-28 05:10,1.4,1.3,2.4, 622,1017.24,,,,,0.89,,261.00,2.55,0.39
2009-03-28 05:20,1.4,0.9,1.5, 544,1017.30,,,,,0.20,,276.40,1.57,0.39
2009-03-28 05:30,1.4,1.3,2.0, 702,1017.36,,,,,0.52,,222.00,2.16,0.78
2009-03-28 05:40,1.3,1.2,2.2,1096,1017.42,,,,,0.91,,252.60,2.35,0.39
2009-03-28 05:50,1.3,1.2,2.2, 640,1017.48,,,,,0.37,,237.60,2.35,0.39
2009-03-28 06:00,1.4,1.8,2.7, 694,1017.60,,,,,0.73,,215.90,2.94,0.98
2009-03-28 06:10,1.3,,, 539,1017.72,216.50,3.12,3.33,1.42,1.00,2.27,,,
2009-03-28 06:20,1.4,,, 744,1017.78,245.60,3.43,3.72,1.87,1.00,2.80,,,
2009-03-28 06:30,1.4,,, 751,1017.91,232.30,4.09,4.24,2.41,1.00,3.29,,,
2009-03-28 06:40,1.6,,, 788,1018.15,230.20,4.85,5.47,2.74,1.00,4.08,,,
2009-03-28 06:50,1.5,,, 926,1018.27,228.90,5.37,5.79,3.36,1.00,4.53,,,
2009-03-28 07:00,1.5,,,1140,1018.33,228.60,6.86,7.14,2.95,1.00,4.95,,,
2009-03-28 07:10,1.5,,,1495,1018.27,241.80,6.20,6.61,3.72,1.00,5.26,,,
2009-03-28 07:20,1.5,,,1378,1018.27,244.20,5.65,5.94,3.52,1.00,4.85,,,
2009-03-28 07:30,1.4,,,1227,1018.15,240.60,4.93,5.25,3.33,1.00,4.21,,,
2009-03-28 07:40,1.3,,,1054,1017.91,253.60,5.37,5.86,2.85,1.00,3.95,,,
2009-03-28 07:50,1.3,,, 894,1017.97,259.50,4.41,4.77,2.45,1.00,3.55,,,
2009-03-28 08:00,1.3,,, 832,1017.97,261.50,4.08,3.76,1.52,1.00,2.66,,,
2009-03-28 08:10,1.4,,, 798,1018.03,257.60,3.07,3.41,1.88,1.00,2.58,,,
2009-03-28 08:20,1.4,,, 796,1018.15,267.30,3.03,3.20,1.01,1.00,2.10,,,
2009-03-28 08:30,1.3,,, 648,1018.21,247.70,2.51,2.67,0.96,1.00,1.78,,,
2009-03-28 08:40,1.4,,, 637,1018.21,234.20,3.61,3.79,1.14,1.00,2.40,,,
2009-03-28 08:50,1.3,,, 764,1017.97,234.60,2.77,2.91,1.17,1.00,1.98,,,
2009-03-28 09:00,1.2,,, 637,1017.97,264.50,1.59,1.90,0.41,1.00,1.27,,,
2009-03-28 09:10,1.1,,, 960,1018.09,236.30,2.75,3.08,0.85,1.00,1.99,,,
2009-03-28 09:20,1.1,,, 659,1018.21,244.50,2.94,3.44,0.98,1.00,2.09,,,
2009-03-28 09:30,1.1,1.4,2.2, 629,1018.15,,,,,0.12,,223.10,2.35,0.39
2009-03-28 09:40,1.1,1.0,1.5, 563,1018.21,,,,,0.94,,233.30,1.57,0.20
2009-03-28 09:50,1.1,,, 549,1018.27,292.90,2.56,2.89,0.98,1.00,1.85,,,
2009-03-28 10:00,0.9,,, 506,1018.33,297.10,2.14,2.37,0.18,1.00,1.13,,,
2009-03-28 10:10,0.9,,, 711,1018.39,281.80,2.57,2.97,1.09,1.00,2.08,,,
2009-03-28 10:20,0.7,,, 701,1018.39,253.00,1.82,1.95,0.15,1.00,1.09,,,
2009-03-28 10:30,0.6,,,1119,1018.39,197.10,1.33,1.55,0.04,1.00,0.65,,,
2009-03-28 10:40,0.7,0.8,1.3, 577,1018.39,,,,,0.98,,231.10,1.37,0.20